This is the latest recevied weather packets stored in our database for station/object DD3UTS-13. If no packets are shown the sender has not sent any weather packets the latest 10 day(s).
| Time | Temp. | Humidity | Pressure | Rain* | Wind** | Luminosity | Snow |
|---|---|---|---|---|---|---|---|
| 1778080232 | 18.89° C | 60% | 1005.1 hPa | 0 mm | - | 369 W/m² | - |
| 1778079932 | 18.89° C | 60% | 1004.9 hPa | 0 mm | - | 263 W/m² | - |
| 1778079632 | 18.89° C | 58% | 1004.9 hPa | 0 mm | - | 189 W/m² | - |
| 1778079332 | 18.89° C | 59% | 1004.8 hPa | 0 mm | - | 200 W/m² | - |
| 1778079032 | 18.89° C | 57% | 1004.8 hPa | 0 mm | - | 211 W/m² | - |
| 1778078732 | 18.33° C | 53% | 1004.8 hPa | 0 mm | - | 361 W/m² | - |
| 1778078432 | 18.33° C | 53% | 1004.8 hPa | 0 mm | - | 184 W/m² | - |
| 1778078132 | 18.89° C | 54% | 1004.8 hPa | 0 mm | - | 165 W/m² | - |
| 1778077832 | 18.89° C | 51% | 1004.8 hPa | 0 mm | - | 177 W/m² | - |
| 1778077532 | 19.44° C | 52% | 1004.8 hPa | 0 mm | - | 203 W/m² | - |
| 1778077232 | 19.44° C | 51% | 1004.8 hPa | 0 mm | - | 245 W/m² | - |
| 1778076932 | 19.44° C | 53% | 1004.9 hPa | 0 mm | - | 227 W/m² | - |
| 1778076632 | 20° C | 52% | 1004.9 hPa | 0 mm | - | 622 W/m² | - |
| 1778076332 | 19.44° C | 54% | 1005.1 hPa | 0 mm | - | 644 W/m² | - |
| 1778076032 | 19.44° C | 54% | 1005.1 hPa | 0 mm | - | 556 W/m² | - |
| 1778075731 | 19.44° C | 54% | 1005.3 hPa | 0 mm | - | 630 W/m² | - |
| 1778075431 | 18.89° C | 53% | 1005.2 hPa | 0 mm | - | 362 W/m² | - |
| 1778075132 | 19.44° C | 55% | 1005 hPa | 0 mm | - | 242 W/m² | - |
| 1778074832 | 19.44° C | 54% | 1005 hPa | 0 mm | - | 331 W/m² | - |
| 1778074532 | 19.44° C | 54% | 1005 hPa | 0 mm | - | 666 W/m² | - |
| 1778074232 | 19.44° C | 54% | 1005.1 hPa | 0 mm | - | 314 W/m² | - |
| 1778073932 | 20° C | 54% | 1005.2 hPa | 0 mm | - | 684 W/m² | - |
| 1778073631 | 19.44° C | 56% | 1005.3 hPa | 0 mm | - | 458 W/m² | - |
| 1778073331 | 18.33° C | 56% | 1005.1 hPa | 0 mm | - | 718 W/m² | - |
| 1778073032 | 18.33° C | 56% | 1005.2 hPa | 0 mm | - | 312 W/m² | - |
* Rain latest 24 hours (hover to see other rain measurements)
** Current wind speed in m/s (hover to see current wind gust speed)